map of TSE home
Great Circle Mapper logo
TSE - Airport
Location
City:  Astana, Kazakhstan
ICAO / IATA:UACC / TSE

Details
Type:Airport (Aerodrome, Airfield)
Use:Public/Civil, International (customs port of entry)
Latitude:5101'20"N (51.022222)
Longitude:7128'01"E (71.466944)
Datum:WGS 1984
Elevation:1165 ft (355 m)
Runways:1
Longest:11484 × 147 ft (3500 × 45 m), paved

Time
Time Zone:UTC+6
Local Time:

Weather
METAR:UACC 240330Z 28008MPS 240V310 9000 SCT015CB BKN023 14/09 Q1000 R22/1/0065 NOSIG RMK QFE719/0959
TAF:UACC 232300Z 2400/2424 28010G15MPS 9999 SCT008 BKN015CB TX20/2409Z TN11/2401Z
TEMPO 2400/2406 30011G16MPS 4000 SHRA SCT006 BKN010CB
BECMG 2406/2407 28008G13MPS SCT020CB BKN070

Related Locations
Nearby:
Farthest:PNT: 10894 mi / 17532 km
Puerto Natales [Teniente Julio Gallardo], MA, CL

Find:

   beyond  
but within

Other Information
Maps:
NOTAMs:
Links:
Sources:

  
flag of Kazakhstan   

Sectional Chart

Flight Planning
at skyvector.com

Satellite Image

Google Maps Satellite View

 

Copyright © 2004-2014 Karl L. Swartz. All rights reserved.
The Great Circle Mapper name and logo are trademarks of the Great Circle Mapper.
All other trademarks mentioned herein belong to their respective owners.
Please see credits for attibutions and further copyright information.

  Follow gcmap on Facebook Follow gcmap on Twitter

hCard Microformat

Geo Microformat